Location: Cerbedi�res
(48.2182°N, 1.4849°W)
Time: 02:57:36
(UTC+00:00)

Meteor 2-12 Rocket - Pass Details

Date: 03 March 2021
Orbit: 936 x 956 km, 82.5° (Epoch: 12 April)

Event Time Altitude Azimuth Distance (km) Brightness Sun altitude
Rises 18:49:42 0° 177° (S) 3,585 7.4 -10.2°
Reaches altitude 10° 18:52:11 10° 174° (S) 2,647 6.7 -10.6°
Maximum altitude 18:58:09 64° 94° (E) 1,044 4.4 -11.6°
Drops below altitude 10° 19:04:10 10° 15° (NNE) 2,678 6.7 -12.6°
Sets 19:06:42 0° 13° (NNE) 3,630 7.4 -13.0°
